Preview of NWS' New Version of Forecast
This preview is not operational and should not be used for support decisions.

Regional Weather Roundup (RWR)

Issued by National Weather Service (NWS)

                            
000
ASUS42 KTBW 240217
RWRFL 
FLORIDA REGIONAL WEATHER ROUNDUP
NATIONAL WEATHER SERVICE TAMPA BAY RUSKIN FL
1000 PM EDT SAT MAR 23 2019

NOTE: "FAIR" INDICATES FEW OR NO CLOUDS BELOW 12,000 FEET WITH NO
SIGNIFICANT WEATHER AND/OR OBSTRUCTIONS TO VISIBILITY.

FLZ001>010-012>015-112-114-115-240300-
PANHANDLE FLORIDA
  
CITY           SKY/WX    TMP DP  RH WIND       PRES   REMARKS
PENSACOLA      FAIR      59  45  59 CALM      30.21S                  
PENSACOLA NAS  FAIR      54  48  80 CALM      30.21S                  
MILTON NAS     FAIR      51  46  83 CALM      30.22R                  
CRESTVIEW      FAIR      53  40  61 CALM      30.24R                  
DUKE FIELD     FAIR      54  40  59 CALM      30.22R                  
VALPARAISO     FAIR      59  45  60 CALM      30.21S                  
MARY ESTHER    MOCLDY    55  49  79 N3        30.21R                  
PANAMA CITY    FAIR      55  47  74 CALM      30.23R                  
APALACHICOLA   FAIR      53  45  74 CALM      30.22S                  

STATION/POSITION SKY/WX   TEMP    WIND        PRES    WAVE   SWELL
                          AIR SEA DIR/SP/G            HT/PER HT/PER
                          (F)     (DEG/KT/KT) (MB)    (FT/S) (FT/S)
30.1N   87.6W              65     190/  6/  8 1023.2S   1
29.2N   88.2W                     100/  4/  6 1023.7R   1
PANAMA CITY BEAC           64 66              1023.9R
TOWER C                    63     230/  4/  4 1024.0R

$$
FLZ011-016>038-118-127-128-134-139-239-240300-
NORTH FLORIDA
  
CITY           SKY/WX    TMP DP  RH WIND       PRES   REMARKS
MARIANNA       FAIR      60  43  53 SW8       30.22R                  
TALLAHASSEE    FAIR      58  42  55 CALM      30.23R                  
PERRY          FAIR      56  46  69 CALM      30.24R                  
LIVE OAK       CLEAR     54  41  62 CALM      30.22R                  
CROSS CITY     FAIR      53  45  75 CALM      30.24R                  
LAKE CITY      FAIR      61  39  44 E6        30.24R                  
GAINESVILLE    FAIR      62  43  49 E7        30.27R                  
WILLISTON        N/A    N/A N/A N/A MISG        N/A                   
PALATKA        FAIR     N/A N/A N/A SE3       30.25R                  
MAYPORT NAS    FAIR      61  55  81 E10       30.26R                  
JACKSONVILLE   FAIR      54  49  83 NE3       30.25R                  
JAX NAS        FAIR      61  49  64 E5        30.26R                  
JAX CECIL      NOT AVBL                                               
FERNANDINA BEA FAIR      60  54  80 E8        30.26R                  
ST AUGUSTINE   FAIR      58  52  80 NE7       30.27R                  
PALM COAST     FAIR      55  51  87 CALM      30.25R                  

STATION/POSITION SKY/WX   TEMP    WIND        PRES    WAVE   SWELL
                          AIR SEA DIR/SP/G            HT/PER HT/PER
                          (F)     (DEG/KT/KT) (MB)    (FT/S) (FT/S)
SHELL POINT      NOT AVBL
KEATON BEACH               62      CALM  /  2 1023.7R
CEDAR KEY                  63     350/  4/  7 1023.5R
FERNANDINA                 61 63              1025.3R
30.7N   81.3W                 63                N/A     3/ 6
MAYPORT                    62 63              1024.5R
31.4N   80.9W              63 62   90/ 14/ 16 1024.7R   3/ 7   2/ 7
ST AUGUSTINE               63 64   60/  9/ 10 1024.7R

$$
FLZ040-043>046-052-053-057-058-063-144-240300-
INTERIOR CENTRAL FLORIDA
  
CITY           SKY/WX    TMP DP  RH WIND       PRES   REMARKS
OCALA          FAIR      65  45  48 E9        30.24R                  
LEESBURG       FAIR      64  49  57 NE9       30.24R                  
SANFORD        FAIR      60  53  77 NE8       30.24R                  
ORLANDO EXEC   FAIR      62  51  67 NE6       30.24R                  
ORLANDO INTL   FAIR      62  52  69 NE9       30.24R                  
KISSIMMEE      FAIR      65  53  65 E8        30.25R                  
WINTER HAVEN   FAIR      67  53  61 E12       30.23R                  
LAKELAND       FAIR      63  46  55 E8        30.22R                  
BARTOW         FAIR      64  54  68 E9        30.21R                  
SEBRING        FAIR      63  54  73 NE7       30.23R                  
OKEECHOBEE     FAIR      61  54  77 E3        30.22R                  

$$
FLZ041-047-054-059-064-141-147-240300-
EAST CENTRAL FLORIDA
  
CITY           SKY/WX    TMP DP  RH WIND       PRES   REMARKS
DAYTONA BEACH  FAIR      60  52  74 NE6       30.25R                  
DELAND         FAIR      57  52  82 NE3       30.25R                  
NEW SMYRNA BEA CLEAR     59  54  82 NE6       30.26R                  
CAPE CANAVERAL FAIR      60  55  84 NE6       30.23R                  
PATRICK AFB    FAIR      66  59  79 NE9       30.23R                  
MELBOURNE      FAIR      66  56  70 NE8       30.23R                  
VERO BEACH     FAIR      62  55  77 NE6       30.23R                  
FT PIERCE      FAIR      62  55  77 NE3       30.22R                  
STUART         FAIR      68  59  73 NE6       30.23R                  

STATION/POSITION SKY/WX   TEMP    WIND        PRES    WAVE   SWELL
                          AIR SEA DIR/SP/G            HT/PER HT/PER
                          (F)     (DEG/KT/KT) (MB)    (FT/S) (FT/S)
28.5N   80.2W              68     350/ 10/ 12 1024.2R   3/ 6   2/ 6
28.9N   78.5W              71 74   10/  6/ 10 1024.6R   4/12   3/12
TRIDENT PIER               60 68              1025.0R
28.4N   80.5W                 67                N/A     2/11
27.5N   80.2W                 69                N/A     2/10

$$
FLZ050-056-061-142-242-148-248-149-249-151-251-155-255-
160-260-240300-
WEST CENTRAL FLORIDA
  
CITY           SKY/WX    TMP DP  RH WIND       PRES   REMARKS
CRYSTAL RIVER  FAIR      54  46  76 CALM      30.22R                  
INVERNESS      FAIR      55  43  62 CALM      30.23R                  
BROOKSVILLE    FAIR      57  45  64 CALM      30.23R                  
CLEARWATER AIR FAIR      63  50  63 N3        30.21R                  
ST PETE CLEARW FAIR      63  51  65 N6        30.20R                  
TAMPA INTL     FAIR      64  48  56 N3        30.21R                  
TAMPA EXEC     FAIR      61  50  67 CALM      30.22R                  
PLANT CITY     FAIR      63  48  59 CALM      30.23R                  
MACDILL AFB    FAIR      64  49  59 N6        30.20R                  
PETER O KNIGHT CLOUDY    68  45  42 CALM      30.21R                  
ST PETERSBURG  FAIR      67  50  54 NW5       30.19R                  
SARASOTA       FAIR      65  52  62 N5        30.18S                  
VENICE         FAIR      64  54  68 NE5       30.21R                  

STATION/POSITION SKY/WX   TEMP    WIND        PRES    WAVE   SWELL
                          AIR SEA DIR/SP/G            HT/PER HT/PER
                          (F)     (DEG/KT/KT) (MB)    (FT/S) (FT/S)
27.3N   84.2W                 72                N/A     2/ 5
CLEARWATER BEACH           66 70              1022.7R
MIDDLE TAMPA BAY           68                 1022.9R
VENICE                     67 71  360/  3/  4 1022.8R

$$
FLZ066-069-070-075>078-162-262-165-265-240300-
SOUTHWEST FLORIDA AND KEYS
  
CITY           SKY/WX    TMP DP  RH WIND       PRES   REMARKS
PUNTA GORDA    FAIR      63  53  70 NW3       30.22R                  
FT MYERS       FAIR      66  54  65 N5        30.20R                  
SOUTHWEST INTL FAIR      65  54  67 CALM      30.20R                  
NAPLES         FAIR      66  58  75 S8        30.19R                  
MARCO ISLAND   FAIR      64  59  83 CALM      30.20R                  
IMMOKALEE      CLOUDY    61  52  72 CALM      30.19R                  
MARATHON       FAIR      74  57  55 NE8       30.18R                  
KEY WEST NAS   FAIR      73  59  61 E10       30.18R                  
KEY WEST INTL  FAIR      72  58  61 E9        30.18R                  

STATION/POSITION SKY/WX   TEMP    WIND        PRES    WAVE   SWELL
                          AIR SEA DIR/SP/G            HT/PER HT/PER
                          (F)     (DEG/KT/KT) (MB)    (FT/S) (FT/S)
NAPLES                     69 73              1022.2R
26.0N   85.6W              70 79  100/  8/ 14 1022.1
DRY TORTUGAS               71      70/  9/ 11 1022.2R
SAND KEY                   73                 1021.7R
SOMBRERO KEY               73                 1021.4R
MOLASSES REEF              73 77   50/ 10/ 12 1022.7

$$
FLZ067-068-071>074-168-172>174-240300-
SOUTHEAST FLORIDA 
  
CITY           SKY/WX    TMP DP  RH WIND       PRES   REMARKS
W PALM BEACH   MOCLDY    69  59  70 N8        30.22R                  
BOCA RATON     CLEAR     70  54  56 E12       30.21R                  
FT LAUDER-EXEC FAIR      70  55  59 E9        30.20R                  
FT LAUDERDALE  FAIR      72  53  51 E10       30.20R                  
POMPANO BEACH  FAIR      72  55  55 E5        30.21R                  
PEMBROKE PINES FAIR      69  54  58 E6        30.22R                  
OPA LOCKA      FAIR      68  54  60 E6        30.21R                  
MIAMI          FAIR      70  53  54 E7        30.21R                  
WEST KENDALL   FAIR      68  54  60 E5        30.21R                  
HOMESTEAD      FAIR      68  54  60 NE6       30.20R                  

STATION/POSITION SKY/WX   TEMP    WIND        PRES    WAVE   SWELL
                          AIR SEA DIR/SP/G            HT/PER HT/PER
                          (F)     (DEG/KT/KT) (MB)    (FT/S) (FT/S)
PORT EVERGLADES            73      90/  7/ 11 1022.7R
VIRGINIA KEY               74 75              1021.9R
LAKE WORTH                 73 75              1024.1R
FOWEY ROCKS                73 77   80/ 13/ 16 1023.5R
SETTLEMENT POINT           72      60/  9/ 11 1023.8R

$$